Location: Juniper Campground
(35.7953°N, 106.2814°W)
Time: 21:54:55
(UTC-06:00)

OTV 5 (USA 277) - Visible Passes

Search period start: 17 October 2018 00:00
Search period end: 27 October 2018 00:00
Orbit: 387 x 394 km, 54.5° (Epoch: 08 September)

Date Brightness Start Highest point End Pass type
(mag) Time Alt. Az. Time Alt. Az. Time Alt. Az.
17 Oct ? 04:47:00 11° ENE 04:47:00 11° ENE 04:47:15 10° ENE visible
17 Oct ? 06:19:25 16° NW 06:21:48 56° SW 06:24:54 10° SSE visible
18 Oct ? 05:25:55 45° ENE 05:25:55 45° ENE 05:28:30 10° ESE visible
19 Oct ? 06:04:58 24° SW 06:04:58 24° SW 06:07:24 10° S visible
22 Oct ? 19:47:04 10° SSW 19:49:47 50° SSE 19:49:47 50° SSE visible
23 Oct ? 18:51:29 10° S 18:53:54 20° SE 18:56:08 11° ENE visible
23 Oct ? 20:26:58 10° W 20:28:33 21° WNW 20:28:33 21° WNW visible
24 Oct ? 19:30:03 10° SW 19:33:11 63° NW 19:34:46 26° NNE visible
25 Oct ? 20:10:58 10° WNW 20:12:55 15° NW 20:13:16 15° NNW visible
26 Oct ? 19:13:27 10° WSW 19:16:17 29° NW 19:19:08 10° NNE visible
